EW1895 Weather Reports


time (UTC)temp
C
wind
direction
speed
KPH
gust
KPH
rain 1hr
cm
rain 24hr
cm
rain mn
cm
humidity
%
barometer
mb
20260903181529 35 344 0.0 1.6 0.00 0.00 0.00 59 1016.1
20260903180032 35 344 0.0 0.0 0.00 0.00 0.00 58 1016.4
20260903174526 35 344 0.0 0.0 0.00 0.00 0.00 59 1016.7
20260903173123 34 344 0.0 0.0 0.00 0.00 0.00 60 1016.6
20260903171527 33 344 0.0 0.0 0.00 0.00 0.00 62 1016.7
20260903170032 33 335 0.0 3.2 0.00 0.00 0.00 64 1017.0
20260903164520 33 341 0.0 0.0 0.00 0.00 0.00 63 1017.1
20260903163111 33 26 0.0 1.6 0.00 0.00 0.00 64 1017.4
20260903161507 32 26 0.0 0.0 0.00 0.00 0.00 68 1017.4
20260903160005 31 26 0.0 1.6 0.00 0.00 0.00 68 1017.4
20260903154503 31 328 0.0 0.0 0.00 0.00 0.00 70 1017.5
20260903153101 30 324 0.0 6.4 0.00 0.00 0.00 73 1017.6
20260903151557 30 286 0.0 1.6 0.00 0.00 0.00 75 1017.6
20260903150109 30 119 0.0 3.2 0.00 0.00 0.00 75 1017.5
20260903144601 30 329 0.0 8.0 0.00 0.00 0.00 75 1017.4
20260903143050 29 152 0.0 8.0 0.00 0.00 0.00 76 1017.3
20260903141547 29 87 0.0 4.8 0.00 0.00 0.00 78 1017.3
20260903140043 28 173 0.0 3.2 0.00 0.00 0.00 80 1017.1
20260903134547 27 173 0.0 3.2 0.00 0.00 0.00 86 1017.2
20260903133038 25 170 0.0 0.0 0.00 0.00 0.00 94 1016.8
20260903131532 24 170 0.0 0.0 0.00 0.00 0.00 96 1017.1
20260903130028 23 170 0.0 0.0 0.00 0.00 0.00 96 1017.2
20260903124530 23 170 0.0 0.0 0.00 0.00 0.00 96 1017.4
20260903123033 23 170 0.0 0.0 0.00 0.00 0.00 96 1017.4
20260903121527 22 170 0.0 0.0 0.00 0.00 0.00 96 1017.4
20260903120025 22 170 0.0 0.0 0.00 0.00 0.00 96 1017.4
20260903114521 22 170 0.0 0.0 0.00 0.00 0.00 96 1017.2
20260903113019 22 170 0.0 0.0 0.00 0.00 0.00 95 1017.0
20260903111518 21 170 0.0 0.0 0.00 0.00 0.00 95 1016.9
20260903110017 22 170 0.0 0.0 0.00 0.00 0.00 95 1016.8
20260903104514 22 170 0.0 0.0 0.00 0.00 0.00 95 1016.7
20260903103014 22 170 0.0 0.0 0.00 0.00 0.00 95 1016.5
20260903101513 22 170 0.0 0.0 0.00 0.00 0.00 95 1016.7
20260903100012 22 170 0.0 0.0 0.00 0.00 0.00 95 1016.5
20260903094511 22 170 0.0 0.0 0.00 0.00 0.00 95 1016.7
20260903093010 22 170 0.0 0.0 0.00 0.00 0.00 95 1016.7
20260903091513 22 170 0.0 0.0 0.00 0.00 0.00 95 1016.4
20260903090016 22 170 0.0 0.0 0.00 0.00 0.00 95 1016.4
20260903084522 22 170 0.0 0.0 0.00 0.00 0.00 95 1016.2
20260903083006 22 170 0.0 0.0 0.00 0.00 0.00 95 1016.1
20260903081506 22 170 0.0 0.0 0.00 0.00 0.00 95 1015.9
20260903080005 22 170 0.0 0.0 0.00 0.00 0.00 94 1016.1
20260903074502 22 170 0.0 0.0 0.00 0.00 0.00 95 1016.3
20260903073001 22 170 0.0 0.0 0.00 0.00 0.00 94 1016.5
20260903071504 22 170 0.0 0.0 0.00 0.00 0.00 94 1016.6
20260903070002 22 170 0.0 0.0 0.00 0.00 0.00 94 1016.6
20260903064502 22 170 0.0 0.0 0.00 0.00 0.00 94 1016.6
20260903063111 23 170 0.0 0.0 0.00 0.00 0.00 94 1016.7
20260903061558 23 170 0.0 0.0 0.00 0.00 0.00 94 1016.6
20260903060055 23 170 0.0 0.0 0.00 0.00 0.00 94 1016.7
20260903054554 23 170 0.0 0.0 0.00 0.00 0.00 94 1016.8
20260903053112 23 170 0.0 0.0 0.00 0.00 0.00 93 1016.9
20260903051552 23 170 0.0 0.0 0.00 0.00 0.00 93 1017.3
20260903044600 23 170 0.0 0.0 0.00 0.00 0.00 94 1017.5
20260903043107 23 170 0.0 0.0 0.00 0.00 0.00 94 1017.3
20260903041554 23 170 0.0 0.0 0.00 0.00 0.00 93 1017.1
20260903040053 24 170 0.0 0.0 0.00 0.00 0.00 93 1016.8
20260903034555 24 170 0.0 0.0 0.00 0.00 0.00 93 1016.8
20260903033050 24 170 0.0 0.0 0.00 0.00 0.00 92 1016.7
20260903031606 24 170 0.0 0.0 0.00 0.00 0.00 92 1016.6
20260903030049 24 170 0.0 0.0 0.00 0.00 0.00 92 1016.5
20260903024548 25 170 0.0 0.0 0.00 0.00 0.00 91 1016.9
20260903023047 25 170 0.0 0.0 0.00 0.00 0.00 91 1016.9
20260903021553 25 170 0.0 0.0 0.00 0.00 0.00 90 1016.8
20260903020047 25 170 0.0 0.0 0.00 0.00 0.00 90 1017.2
20260903014556 25 170 0.0 0.0 0.00 0.00 0.00 89 1017.6
20260903013048 26 170 0.0 0.0 0.00 0.00 0.00 88 1017.3
20260903011547 26 170 0.0 0.0 0.00 0.00 0.00 88 1017.2
20260903010046 26 170 0.0 0.0 0.00 0.00 0.00 86 1017.2
20260903004545 26 170 0.0 0.0 0.00 0.00 0.00 85 1017.0
20260903003045 27 170 0.0 0.0 0.00 0.00 0.00 84 1016.9
20260903001550 27 170 0.0 0.0 0.00 0.00 0.00 83 1016.7
20260903000044 28 170 0.0 0.0 0.00 0.00 0.00 82 1016.7
20260902234544 28 170 0.0 0.0 0.00 0.00 0.00 81 1016.9
20260902233044 28 177 0.0 0.0 0.00 0.00 0.00 79 1016.7
20260902231543 28 177 0.0 0.0 0.00 0.00 0.00 79 1017.0
20260902230043 28 176 0.0 6.4 0.00 0.00 0.00 78 1017.5
20260902224544 28 177 0.0 0.0 0.00 0.00 0.00 77 1017.3
20260902223043 29 180 0.0 0.0 0.00 0.00 0.00 77 1017.3
20260902221543 29 180 0.0 0.0 0.00 0.00 0.00 75 1017.2
20260902220046 30 177 0.0 1.6 0.00 0.00 0.00 75 1017.3
20260902214542 30 148 0.0 0.0 0.00 0.00 0.00 73 1016.9
20260902213041 31 110 0.0 1.6 0.00 0.00 0.00 70 1016.9
20260902211548 31 110 0.0 4.8 0.00 0.00 0.00 68 1016.9
20260902210108 32 108 0.0 4.8 0.00 0.00 0.00 65 1017.1
20260902204543 33 327 4.8 17.7 0.00 0.00 0.00 62 1016.6
20260902203040 35 5 0.0 4.8 0.00 0.00 0.00 53 1017.2
20260902201541 36 346 0.0 1.6 0.00 0.00 0.00 52 1017.0
20260902200040 36 74 0.0 9.7 0.00 0.00 0.00 51 1017.3
20260902194542 36 132 0.0 1.6 0.00 0.00 0.00 50 1017.1
20260902193040 36 146 0.0 3.2 0.00 0.00 0.00 52 1016.8
20260902191543 36 105 0.0 1.6 0.00 0.00 0.00 52 1016.9
20260902190041 36 275 0.0 4.8 0.00 0.00 0.00 50 1017.1
20260902184536 37 167 0.0 3.2 0.00 0.00 0.00 50 1017.1
20260902183033 36 103 0.0 3.2 0.00 0.00 0.00 51 1017.3